Humidity-temperature Sensor

Selected Measurement Type: Air Temperature

 
Air Temperature [°C]     6 entries per hour
Showing data from 9/5/2019 (00:00:00 Z) to 9/2/2019 (00:01:00 Z)
Previous Next [ Day | 3-Days | 7-Days ]
First Last
Prev [ Day | 3-Days | 7-Days ] Next
First Last

Start Time:     :
End Time:     :     
Time (in GMT) :00 :50 :40 :30 :20 :10
Previous Next [ Day | 3-Days | 7-Days ]
First Last
Prev [ Day | 3-Days | 7-Days ] Next
First Last


123 => good data
MM => data is determined as missing
-- => data not received/configured
Back to Top Back to Top
9/5/2019 00:00 to 23:10 25.99 26.07 25.85 25.69 25.51 25.15
9/4/2019 23:00 to 22:10 25.28 25.13 25.12 24.95 24.89 24.77
9/4/2019 22:00 to 21:10 24.71 24.61 25.05 25.07 25.26 25.05
9/4/2019 21:00 to 20:10 25.01 24.77 24.89 25.05 25.11 25.51
9/4/2019 20:00 to 19:10 25.51 25.50 25.22 24.88 24.62 24.74
9/4/2019 19:00 to 18:10 24.68 24.71 24.82 24.68 24.59 24.58
9/4/2019 18:00 to 17:10 24.64 24.35 24.77 24.78 24.83 25.01
9/4/2019 17:00 to 16:10 25.05 24.94 24.79 24.95 24.88 24.71
9/4/2019 16:00 to 15:10 24.70 24.57 24.90 24.79 24.51 24.55
9/4/2019 15:00 to 14:10 24.52 24.65 24.67 25.13 25.43 25.09
9/4/2019 14:00 to 13:10 25.05 24.94 24.61 24.51 24.63 24.49
9/4/2019 13:00 to 12:10 24.43 24.39 24.75 24.71 24.49 24.16
9/4/2019 12:00 to 11:10 24.18 24.42 24.63 24.83 25.04 24.88
9/4/2019 11:00 to 10:10 24.48 24.22 24.26 24.23 24.21 24.20
9/4/2019 10:00 to 9:10 24.46 24.21 24.33 24.12 24.11 24.41
9/4/2019 09:00 to 8:10 24.38 24.40 24.74 24.89 24.63 25.18
9/4/2019 08:00 to 7:10 24.67 24.33 24.44 24.58 25.17 25.06
9/4/2019 07:00 to 6:10 24.87 24.82 24.67 24.53 24.73 24.99
9/4/2019 06:00 to 5:10 24.78 24.88 24.84 25.24 25.44 25.23
9/4/2019 05:00 to 4:10 24.97 25.11 24.95 24.85 24.98 24.81
9/4/2019 04:00 to 3:10 24.99 25.89 26.05 25.88 25.83 25.68
9/4/2019 03:00 to 2:10 25.62 25.97 25.61 25.51 25.68 25.83
9/4/2019 02:00 to 1:10 25.69 25.96 25.98 25.93 26.00 25.91
9/4/2019 01:00 to 0:10 26.04 26.01 26.03 25.92 25.90 25.84
9/4/2019 00:00 to 23:10 25.78 25.77 25.77 25.68 25.74 25.83
9/3/2019 23:00 to 22:10 25.75 25.77 25.73 25.67 25.68 25.55
9/3/2019 22:00 to 21:10 25.51 25.37 25.42 25.33 25.31 25.23
9/3/2019 21:00 to 20:10 25.35 25.19 25.13 25.15 25.22 24.99
9/3/2019 20:00 to 19:10 25.08 24.96 25.17 25.14 25.06 25.00
9/3/2019 19:00 to 18:10 24.91 24.93 24.87 24.68 24.60 24.61
9/3/2019 18:00 to 17:10 24.59 24.47 24.49 24.38 24.47 24.54
9/3/2019 17:00 to 16:10 24.10 24.15 24.09 24.02 23.92 23.81
9/3/2019 16:00 to 15:10 23.67 23.47 23.25 22.91 22.82 22.80
9/3/2019 15:00 to 14:10 22.70 22.54 22.56 22.49 22.84 22.72
9/3/2019 14:00 to 13:10 22.81 22.83 23.09 23.19 23.02 23.05
9/3/2019 13:00 to 12:10 22.85 23.02 22.95 23.04 22.87 23.16
9/3/2019 12:00 to 11:10 23.05 23.58 25.80 25.65 25.68 25.53
9/3/2019 11:00 to 10:10 25.66 25.54 25.47 25.40 25.82 26.00
9/3/2019 10:00 to 9:10 26.10 26.12 25.96 26.14 26.20 26.13
9/3/2019 09:00 to 8:10 26.14 26.23 26.27 26.26 26.23 25.83
9/3/2019 08:00 to 7:10 25.38 25.20 25.24 25.33 25.24 25.94
9/3/2019 07:00 to 6:10 26.20 25.94 26.08 25.86 26.37 26.13
9/3/2019 06:00 to 5:10 25.97 26.06 25.98 26.08 26.11 26.14
9/3/2019 05:00 to 4:10 26.21 26.35 26.37 26.47 26.42 26.47
9/3/2019 04:00 to 3:10 26.44 26.39 26.38 26.49 26.42 26.45
9/3/2019 03:00 to 2:10 26.44 26.47 26.45 26.47 26.36 26.29
9/3/2019 02:00 to 1:10 26.28 26.30 26.27 26.30 26.48 26.43
9/3/2019 01:00 to 0:10 26.28 26.23 26.25 26.29 26.20 26.58
9/3/2019 00:00 to 23:10 26.62 26.58 26.63 26.64 26.38 26.53
9/2/2019 23:00 to 22:10 26.67 26.64 26.48 26.81 26.74 26.68
9/2/2019 22:00 to 21:10 26.76 26.60 26.62 26.75 26.82 26.42
9/2/2019 21:00 to 20:10 26.42 26.48 26.46 26.37 26.44 26.83
9/2/2019 20:00 to 19:10 26.80 26.79 26.89 26.81 26.92 26.83
9/2/2019 19:00 to 18:10 26.80 26.85 26.75 26.83 26.77 26.76
9/2/2019 18:00 to 17:10 26.81 26.78 26.87 26.86 26.80 26.81
9/2/2019 17:00 to 16:10 26.81 26.81 26.66 26.69 26.74 26.72
9/2/2019 16:00 to 15:10 26.76 26.77 26.65 26.85 26.73 26.72
9/2/2019 15:00 to 14:10 26.67 26.63 26.86 26.76 26.74 26.65
9/2/2019 14:00 to 13:10 26.67 26.62 26.62 26.66 26.64 26.57
9/2/2019 13:00 to 12:10 26.56 26.53 26.53 26.49 26.45 26.51
9/2/2019 12:00 to 11:10 26.40 26.37 26.34 26.41 26.32 26.29
9/2/2019 11:00 to 10:10 26.30 26.38 26.27 26.25 26.20 26.19
9/2/2019 10:00 to 9:10 26.28 26.28 26.29 26.25 26.19 26.18
9/2/2019 09:00 to 8:10 26.09 26.15 26.03 26.03 26.15 26.05
9/2/2019 08:00 to 7:10 26.00 26.02 26.03 25.97 26.04 26.15
9/2/2019 07:00 to 6:10 25.97 25.99 26.05 25.99 26.13 26.05
9/2/2019 06:00 to 5:10 26.07 26.05 26.07 26.00 26.00 25.97
9/2/2019 05:00 to 4:10 26.01 25.94 25.90 25.91 25.88 25.88
9/2/2019 04:00 to 3:10 25.99 25.93 25.84 25.76 25.84 25.89
9/2/2019 03:00 to 2:10 25.89 25.86 26.01 25.90 25.79 25.84
9/2/2019 02:00 to 1:10 25.46 25.40 25.37 25.63 25.76 25.72
9/2/2019 01:00 to 0:10 25.62 25.47 25.32 25.22 25.25 25.21